{"data":{"norad_id":40364,"intl_designator":"2014-089A","name":"ASTRA 2G","alt_names":[],"object_type":"PAYLOAD","status":"ACTIVE","operator":null,"country":"SES","launch_date":"2014-12-27","launch_site_code":"TYMSC","launch_vehicle":null,"mission":null,"orbit_class":"UNKNOWN","rcs_meters":0.003,"size_class":null,"mass_kg":null,"dimensions":null,"purposes":["comms"],"wikipedia_slug":null,"has_3d_model":false,"image_url":null,"decayed_at":null,"tle_current":{"epoch":"2026-09-20T03:22:12.332928Z","epoch_age_seconds":45581,"freshness":"FRESH","line1":"1 40364U 14089A   26263.14042052  .00000146  00000+0  00000+0 0  9995","line2":"2 40364   0.0589 346.3900 0002771 114.0391 337.3631  1.00275096 42914","mean_motion":1.00275096,"eccentricity":0.0002771,"inclination_deg":0.0589,"raan_deg":346.39,"arg_perigee_deg":114.0391,"mean_anomaly_deg":337.3631,"bstar":0,"rev_number":4291,"period_min":1436.0494853079,"perigee_km":35773.983203207,"apogee_km":35797.350383269,"semimajor_km":42163.803793238,"source":"CELESTRAK","updated_at":"2026-09-20T09:00:35.684257Z"}}}